User: anonymous   Login
Location: Jetmore Oil Field
(38.1181°N, 99.9337°W)
Time: 23:52:55
(UTC+00:00)
Language:

STARLINK-2704 - Orbit

View from above orbital plane
View from above orbital plane
View from above satellite
View from above satellite

Ground track
Ground track

The orbit data is extracted from the following two-line orbital elements,

1 48643C 21044F   21268.74131513  .00006826  00000-0  45747-3 0  2681
2 48643  53.0540 220.7732 0001768  59.2729 258.3653 15.06383405    11
Epoch (UTC): 25 September 2021 17:47:29
Eccentricity: 0.0001768
inclination: 53.0540°
perigee height: 546 km
apogee height: 548 km
right ascension of ascending node: 220.7732°
argument of perigee: 59.2729°
revolutions per day: 15.06383405
mean anomaly at epoch: 258.3653°
orbit number at epoch: 1

The dashed part of the orbit path shows where the satellite is in the earth's shadow,  

DLR